GW2097 Weather Reports


time (UTC)temp
F
wind
direction
speed
knots
gust
knots
rain 1hr
in
rain 24hr
in
rain mn
in
humidity
%
barometer
mb
20260510033040 48 0 0.0 0.0 0.00 0.51 0.51 96 1008.7
20260510031549 48 0 0.0 0.0 0.00 0.51 0.51 97 1009.0
20260510030055 48 0 0.0 0.0 0.00 0.51 0.51 97 1008.7
20260510024548 48 0 0.0 0.0 0.00 0.51 0.51 96 1008.3
20260510023045 48 0 0.0 0.0 0.00 0.51 0.51 96 1008.2
20260510021544 48 0 0.0 0.0 0.00 0.51 0.51 97 1008.4
20260510020043 48 0 0.0 0.0 0.00 0.51 0.51 97 1008.3
20260510014543 48 0 0.0 0.0 0.00 0.51 0.51 96 1008.0
20260510013052 49 0 0.0 0.0 0.00 0.51 0.51 96 1008.2
20260510011545 49 0 0.0 0.0 0.00 0.51 0.51 96 1008.2
20260510010043 49 0 0.0 0.0 0.00 0.51 0.51 96 1008.1
20260510004542 49 0 0.0 0.0 0.00 0.51 0.51 96 1007.8
20260510003051 49 0 0.0 0.0 0.00 0.51 0.51 96 1007.7
20260510001543 49 0 0.0 0.0 0.00 0.51 0.51 96 1007.7
20260510000044 49 0 0.0 0.0 0.00 0.51 0.51 95 1007.6
20260509234559 49 0 0.0 0.0 0.00 0.51 0.51 95 1007.4
20260509233046 50 0 0.0 0.0 0.00 0.51 0.51 95 1007.2
20260509231601 50 0 0.0 0.0 0.00 0.51 0.51 95 1007.1
20260509230045 50 0 0.0 0.0 0.00 0.51 0.51 95 1007.4
20260509224542 50 0 0.0 0.0 0.00 0.51 0.51 95 1007.3
20260509223044 51 0 0.0 0.0 0.00 0.51 0.51 96 1007.1
20260509221544 50 0 0.0 0.0 0.00 0.51 0.51 97 1007.1
20260509220044 50 0 0.0 0.0 0.00 0.51 0.51 97 1007.2
20260509214543 50 0 0.0 0.0 0.00 0.51 0.51 97 1007.1
20260509213039 50 0 0.0 0.0 0.00 0.51 0.51 98 1007.4
20260509211537 49 0 0.0 0.0 0.01 0.51 0.51 97 1007.6
20260509210058 49 0 0.0 0.0 0.01 0.51 0.51 97 1007.7
20260509204542 49 0 0.0 0.0 0.02 0.51 0.51 97 1007.6
20260509203045 49 0 0.0 0.0 0.03 0.51 0.51 97 1007.9
20260509201554 49 0 0.0 0.0 0.03 0.50 0.50 97 1008.0
20260509200037 49 0 0.0 0.0 0.05 0.50 0.50 97 1008.1
20260509194544 48 0 0.0 0.0 0.06 0.49 0.49 97 1008.2
20260509193047 48 0 0.0 0.0 0.07 0.48 0.48 97 1008.2
20260509191545 48 0 0.0 0.0 0.08 0.47 0.47 97 1008.4
20260509190040 48 0 0.0 0.0 0.07 0.45 0.45 97 1008.6
20260509184546 48 0 0.0 0.0 0.05 0.43 0.43 97 1008.5
20260509183038 48 0 0.0 0.0 0.04 0.41 0.41 97 1008.6
20260509181544 48 0 0.0 0.0 0.03 0.39 0.39 97 1008.5
20260509180045 48 0 0.0 0.0 0.02 0.38 0.38 97 1008.5
20260509174542 48 0 0.0 0.0 0.02 0.38 0.38 97 1008.3
20260509173037 48 0 0.0 0.0 0.02 0.37 0.37 97 1008.2
20260509171548 48 0 0.0 0.0 0.01 0.36 0.36 97 1008.3
20260509170057 48 0 0.0 0.0 0.02 0.36 0.36 97 1008.4
20260509164544 48 0 0.0 0.0 0.01 0.35 0.35 97 1008.4
20260509163055 48 0 0.0 0.0 0.02 0.35 0.35 97 1008.5
20260509161552 48 0 0.0 0.0 0.03 0.35 0.35 97 1008.5
20260509160042 47 0 0.0 0.0 0.04 0.34 0.34 97 1008.7
20260509154539 47 0 0.0 0.0 0.05 0.34 0.34 97 1008.8
20260509153044 47 0 0.0 0.0 0.05 0.33 0.33 97 1009.1
20260509151542 47 0 0.0 0.0 0.05 0.32 0.32 97 1009.4
20260509150037 47 0 0.0 0.0 0.04 0.30 0.30 97 1009.7
20260509144548 46 0 0.0 0.0 0.04 0.29 0.29 97 1009.6
20260509143049 46 0 0.0 0.0 0.04 0.28 0.28 97 1009.5
20260509141543 46 0 0.0 0.0 0.04 0.26 0.26 97 1009.6
20260509140043 46 0 0.0 0.0 0.05 0.26 0.26 97 1009.4
20260509134537 45 0 0.0 0.0 0.06 0.25 0.25 97 1009.3
20260509133040 45 0 0.0 0.0 0.05 0.23 0.23 97 1009.4
20260509131543 45 0 0.0 0.0 0.06 0.22 0.22 97 1009.7
20260509130045 45 0 0.0 0.0 0.06 0.21 0.21 97 1009.7
20260509124548 45 0 0.0 0.0 0.06 0.19 0.19 97 1009.9
20260509123041 45 0 0.0 0.0 0.06 0.18 0.18 97 1009.9
20260509121555 45 0 0.0 0.0 0.05 0.16 0.16 97 1010.0
20260509120045 44 0 0.0 0.0 0.05 0.15 0.15 97 1010.0
20260509114556 44 0 0.0 0.0 0.05 0.13 0.13 97 1010.0
20260509113041 44 0 0.0 0.0 0.05 0.12 0.12 96 1009.8
20260509111539 44 0 0.0 0.0 0.05 0.11 0.11 96 1009.8
20260509110037 44 0 0.0 0.0 0.04 0.10 0.10 96 1009.7
20260509104537 44 0 0.0 0.0 0.03 0.08 0.08 96 1009.8
20260509103044 44 0 0.0 0.0 0.02 0.07 0.07 96 1009.8
20260509101544 44 0 0.0 0.0 0.01 0.06 0.06 96 1009.6
20260509100039 44 0 0.0 0.0 0.01 0.06 0.06 96 1009.8
20260509094545 44 0 0.0 0.0 0.00 0.05 0.05 96 1009.8
20260509093045 44 0 0.0 0.0 0.00 0.05 0.05 96 1009.7
20260509091541 44 0 0.0 0.0 0.01 0.05 0.05 96 1009.8
20260509090058 44 0 0.0 0.0 0.01 0.05 0.05 96 1009.8
20260509084545 44 0 0.0 0.0 0.01 0.05 0.05 96 1009.9
20260509083051 44 0 0.0 0.0 0.02 0.05 0.05 95 1009.9
20260509081545 44 0 0.0 0.0 0.01 0.04 0.04 95 1010.0
20260509080054 44 0 0.0 0.0 0.02 0.04 0.04 95 1010.3
20260509074543 44 0 0.0 0.0 0.02 0.04 0.04 95 1010.4
20260509073039 44 0 0.0 0.0 0.02 0.03 0.03 94 1010.4
20260509071540 44 0 0.0 0.0 0.03 0.03 0.03 94 1010.5
20260509070040 44 0 0.0 0.0 0.02 0.02 0.02 93 1010.2
20260509064543 44 0 0.0 0.0 0.02 0.02 0.02 93 1010.3
20260509063048 44 0 0.0 0.0 0.01 0.01 0.01 92 1010.2
20260509061541 44 0 0.0 0.0 0.00 0.00 0.00 91 1010.8
20260509060038 44 0 0.0 0.0 0.00 0.00 0.00 88 1010.9
20260509054537 45 0 0.0 0.0 0.00 0.00 0.00 86 1011.0
20260509053046 44 0 0.0 0.0 0.00 0.00 0.00 84 1011.0
20260509051545 45 0 0.0 0.0 0.00 0.00 0.00 83 1010.8
20260509050053 45 0 0.0 0.0 0.00 0.00 0.00 82 1010.7
20260509044539 45 0 0.0 0.0 0.00 0.00 0.00 82 1010.9
20260509043044 45 0 0.0 0.0 0.00 0.00 0.00 81 1011.3
20260509041546 45 0 0.0 0.0 0.00 0.00 0.00 80 1011.2
20260509040043 45 0 0.0 0.0 0.00 0.00 0.00 80 1011.2
20260509034543 45 0 0.0 0.0 0.00 0.00 0.00 78 1011.1